Date,TemperatureHighF,TemperatureAvgF,TemperatureLowF,DewpointHighF,DewpointAvgF,DewpointLowF,HumidityHigh,HumidityAvg,HumidityLow,PressureMaxIn,PressureMinIn,WindSpeedMaxMPH,WindSpeedAvgMPH,GustSpeedMaxMPH,PrecipitationSumIn
2013-1-1,51,48,44,50,44,34,98,87,62,30.12,29.93,3,0,4,1.07
2013-1-2,50,45,40,50,42,-100,99,92,86,30.12,29.90,10,-9,11,0.01
2013-1-3,48,40,34,39,35,29,94,81,54,30.30,30.08,7,2,15,0.00
2013-1-4,52,38,30,29,23,-100,93,60,24,30.36,30.26,7,-10,17,0.00
2013-1-5,48,39,29,37,28,24,91,67,41,30.38,30.26,6,1,8,0.02
2013-1-6,48,43,40,40,37,34,90,80,67,30.27,30.11,10,4,17,0.00
2013-1-7,55,43,32,34,31,28,86,63,39,30.38,30.22,9,2,12,0.00
2013-1-8,50,44,36,42,35,31,80,71,60,30.42,30.32,7,2,11,0.00
2013-1-9,63,56,49,53,49,40,93,77,64,30.42,30.34,6,1,9,0.00
2013-1-10,65,60,56,57,54,53,96,82,69,30.40,30.23,9,2,15,0.03
2013-1-11,67,62,58,64,61,57,99,97,87,30.22,30.07,9,3,13,0.31
2013-1-12,72,64,58,64,60,57,99,89,69,30.13,30.02,6,1,11,0.00
2013-1-13,70,64,59,63,60,58,97,86,73,30.08,29.98,9,3,17,0.02
2013-1-14,65,61,54,64,60,53,98,97,92,30.07,29.98,7,2,13,0.57
2013-1-15,63,58,53,63,58,53,99,98,97,30.06,29.93,10,2,15,0.69
2013-1-16,63,56,52,63,55,52,99,98,95,29.97,29.87,5,1,9,0.30
2013-1-17,56,49,38,56,47,-100,99,96,90,30.20,29.64,9,-20,18,0.89
2013-1-18,54,43,33,36,29,23,92,63,31,30.48,30.21,4,1,10,0.00
2013-1-19,53,42,32,34,29,23,89,63,33,30.45,30.21,5,1,8,0.00
2013-1-20,62,48,35,39,35,31,93,64,39,30.21,30.07,10,2,13,0.00
2013-1-21,58,45,37,37,30,18,91,59,37,30.12,30.02,14,4,22,0.00
2013-1-22,45,35,29,18,12,-100,53,40,27,30.29,30.10,10,-7,24,0.00
2013-1-23,49,39,30,36,20,-100,66,51,41,30.36,30.15,10,-20,20,0.00
2013-1-24,54,47,36,41,24,6,81,47,17,30.38,30.07,14,4,17,0.00
2013-1-25,37,30,27,35,19,8,94,67,39,30.41,30.15,12,3,17,0.00
2013-1-26,54,43,37,38,35,31,97,76,47,30.27,30.13,8,2,11,0.01
2013-1-27,47,42,35,34,32,30,85,70,60,30.48,30.27,9,3,13,0.00
2013-1-28,51,45,42,46,38,32,95,77,68,30.43,30.27,5,1,8,0.00
2013-1-29,69,57,44,61,54,43,98,88,68,30.27,29.96,7,1,11,0.01
2013-1-30,66,59,43,64,57,40,98,93,86,29.95,29.49,19,7,28,2.68
2013-1-31,47,40,35,37,25,-100,82,57,38,30.12,29.70,18,-5,31,0.00